Voltar ao catálogo

NIMIQ 1

AtivoComunicaçõesGEO
NORAD 25740·PAYLOAD·🇨🇦 Canada

Lançado May 20, 1999 de Baikonur Cosmodrome

Loading…

TLE

AtualizadoSource: Space-Track

Época: Sep 14, 2026, 21:09 UTC

1 25740U 99027A   26257.88161390 -.00000094  00000-0  00000-0 0  9997
2 25740   6.8495  69.7101 0005399 303.7178  45.8027  0.98579197 99651

Acompanhe NIMIQ 1 em tempo real com AllMySat

Download on the App Store